Time,TemperatureF,DewpointF,PressureIn,WindDirection,WindDirectionDegrees,WindSpeedMPH,WindSpeedGustMPH,Humidity,HourlyPrecipIn,Conditions,Clouds,dailyrainin,SoftwareType,DateUTC
2013-06-05 00:04:00,48.2,38.5,30.19,WNW,291,3.0,7.0,69,0.00,CLR,CLR,0.00,WeatherDisplay:10.34,2013-06-05 06:04:00,
2013-06-05 00:09:00,48.2,38.5,30.19,WNW,290,3.0,0.0,69,0.00,CLR,CLR,0.00,WeatherDisplay:10.34,2013-06-05 06:09:00,
2013-06-05 00:14:00,47.9,38.2,30.20,NW,306,4.0,5.0,69,0.00,CLR,CLR,0.00,WeatherDisplay:10.34,2013-06-05 06:14:00,
2013-06-05 00:19:00,47.8,38.1,30.20,WNW,300,3.0,8.0,69,0.00,CLR,CLR,0.00,WeatherDisplay:10.34,2013-06-05 06:19:00,
2013-06-05 00:24:00,47.6,37.9,30.20,WNW,288,0.0,1.0,69,0.00,CLR,CLR,0.00,WeatherDisplay:10.34,2013-06-05 06:24:00,
2013-06-05 00:29:00,47.4,37.7,30.20,West,275,3.0,5.0,69,0.00,CLR,CLR,0.00,WeatherDisplay:10.34,2013-06-05 06:29:00,
2013-06-05 00:34:00,47.3,37.6,30.20,WNW,290,3.0,3.0,69,0.00,CLR,CLR,0.00,WeatherDisplay:10.34,2013-06-05 06:34:00,
2013-06-05 00:39:00,47.0,37.7,30.20,WNW,287,1.0,3.0,70,0.00,CLR,CLR,0.00,WeatherDisplay:10.34,2013-06-05 06:39:00,
2013-06-05 00:44:00,46.8,37.5,30.19,West,273,3.0,7.0,70,0.00,CLR,CLR,0.00,WeatherDisplay:10.34,2013-06-05 06:44:00,
2013-06-05 00:49:00,46.6,37.7,30.19,NW,306,3.0,5.0,71,0.00,CLR,CLR,0.00,WeatherDisplay:10.34,2013-06-05 06:49:00,
2013-06-05 00:54:00,46.4,37.5,30.19,West,279,3.0,7.0,71,0.00,CLR,CLR,0.00,WeatherDisplay:10.34,2013-06-05 06:54:00,
2013-06-05 00:59:00,46.2,37.3,30.19,West,281,1.0,1.0,71,0.00,CLR,CLR,0.00,WeatherDisplay:10.34,2013-06-05 06:59:00,
2013-06-05 01:04:00,46.0,37.1,30.19,West,281,1.0,1.0,71,0.00,CLR,CLR,0.00,WeatherDisplay:10.34,2013-06-05 07:04:00,
2013-06-05 01:09:00,45.7,37.2,30.19,West,281,0.0,0.0,72,0.00,CLR,CLR,0.00,WeatherDisplay:10.34,2013-06-05 07:09:00,
2013-06-05 01:14:00,45.5,37.0,30.19,West,281,0.0,1.0,72,0.00,CLR,CLR,0.00,WeatherDisplay:10.34,2013-06-05 07:14:00,
2013-06-05 01:19:00,45.3,36.8,30.19,West,281,2.0,2.0,72,0.00,CLR,CLR,0.00,WeatherDisplay:10.34,2013-06-05 07:19:00,
2013-06-05 01:24:00,45.0,36.9,30.18,West,281,2.0,2.0,73,0.00,CLR,CLR,0.00,WeatherDisplay:10.34,2013-06-05 07:24:00,
2013-06-05 01:29:00,44.8,37.0,30.18,West,281,3.0,3.0,74,0.00,CLR,CLR,0.00,WeatherDisplay:10.34,2013-06-05 07:29:00,
2013-06-05 01:34:00,44.5,36.7,30.18,WSW,241,2.0,3.0,74,0.00,CLR,CLR,0.00,WeatherDisplay:10.34,2013-06-05 07:34:00,
2013-06-05 01:39:00,44.2,36.8,30.18,WSW,241,1.0,1.0,75,0.00,CLR,CLR,0.00,WeatherDisplay:10.34,2013-06-05 07:39:00,
2013-06-05 01:44:00,44.1,36.7,30.18,WSW,251,3.0,5.0,75,0.00,CLR,CLR,0.00,WeatherDisplay:10.34,2013-06-05 07:44:00,
2013-06-05 01:49:00,43.9,36.5,30.18,WSW,250,2.0,3.0,75,0.00,CLR,CLR,0.00,WeatherDisplay:10.34,2013-06-05 07:49:00,
2013-06-05 01:54:00,43.8,36.4,30.17,WSW,255,4.0,5.0,75,0.00,CLR,CLR,0.00,WeatherDisplay:10.34,2013-06-05 07:54:00,
2013-06-05 01:59:00,43.8,36.4,30.17,WNW,295,1.0,3.0,75,0.00,CLR,CLR,0.00,WeatherDisplay:10.34,2013-06-05 07:59:00,
2013-06-05 02:04:00,43.8,36.4,30.17,WNW,286,3.0,3.0,75,0.00,CLR,CLR,0.00,WeatherDisplay:10.34,2013-06-05 08:04:00,
2013-06-05 02:09:00,43.8,36.4,30.17,WNW,291,4.0,5.0,75,0.00,CLR,CLR,0.00,WeatherDisplay:10.34,2013-06-05 08:09:00,
2013-06-05 02:14:00,43.7,36.3,30.17,WNW,286,2.0,2.0,75,0.00,CLR,CLR,0.00,WeatherDisplay:10.34,2013-06-05 08:14:00,
2013-06-05 02:19:00,43.7,36.3,30.17,West,260,4.0,4.0,75,0.00,CLR,CLR,0.00,WeatherDisplay:10.34,2013-06-05 08:19:00,
2013-06-05 02:24:00,43.5,36.1,30.17,WSW,257,3.0,3.0,75,0.00,CLR,CLR,0.00,WeatherDisplay:10.34,2013-06-05 08:24:00,
2013-06-05 02:29:00,43.3,35.9,30.17,West,261,1.0,2.0,75,0.00,CLR,CLR,0.00,WeatherDisplay:10.34,2013-06-05 08:29:00,
2013-06-05 02:34:00,43.2,36.1,30.17,West,260,2.0,2.0,76,0.00,CLR,CLR,0.00,WeatherDisplay:10.34,2013-06-05 08:34:00,
2013-06-05 02:39:00,43.1,36.0,30.17,West,260,2.0,2.0,76,0.00,CLR,CLR,0.00,WeatherDisplay:10.34,2013-06-05 08:39:00,
2013-06-05 02:44:00,42.8,35.8,30.17,WSW,242,3.0,3.0,76,0.00,CLR,CLR,0.00,WeatherDisplay:10.34,2013-06-05 08:44:00,
2013-06-05 02:49:00,42.5,35.8,30.17,WSW,242,2.0,2.0,77,0.00,CLR,CLR,0.00,WeatherDisplay:10.34,2013-06-05 08:49:00,
2013-06-05 02:54:00,42.2,35.5,30.16,SW,222,4.0,5.0,77,0.00,CLR,CLR,0.00,WeatherDisplay:10.34,2013-06-05 08:54:00,
2013-06-05 02:59:00,41.7,35.3,30.16,SW,219,2.0,2.0,78,0.00,CLR,CLR,0.00,WeatherDisplay:10.34,2013-06-05 08:59:00,
2013-06-05 03:04:00,41.4,35.1,30.16,SW,219,0.0,0.0,78,0.00,CLR,CLR,0.00,WeatherDisplay:10.34,2013-06-05 09:04:00,
2013-06-05 03:09:00,41.1,34.8,30.16,SW,219,0.0,0.0,78,0.00,CLR,CLR,0.00,WeatherDisplay:10.34,2013-06-05 09:09:00,
2013-06-05 03:14:00,40.7,34.7,30.16,SW,219,0.0,0.0,79,0.00,CLR,CLR,0.00,WeatherDisplay:10.34,2013-06-05 09:14:00,
2013-06-05 03:19:00,40.3,34.6,30.16,SW,219,0.0,0.0,80,0.00,CLR,CLR,0.00,WeatherDisplay:10.34,2013-06-05 09:19:00,
2013-06-05 03:24:00,39.9,34.2,30.16,SW,219,4.0,4.0,80,0.00,CLR,CLR,0.00,WeatherDisplay:10.34,2013-06-05 09:24:00,
2013-06-05 03:29:00,39.6,34.2,30.16,SW,219,0.0,2.0,81,0.00,CLR,CLR,0.00,WeatherDisplay:10.34,2013-06-05 09:29:00,
2013-06-05 03:34:00,39.4,34.1,30.16,SW,219,0.0,0.0,81,0.00,CLR,CLR,0.00,WeatherDisplay:10.34,2013-06-05 09:34:00,
2013-06-05 03:39:00,39.0,33.7,30.16,SW,219,3.0,3.0,81,0.00,CLR,CLR,0.00,WeatherDisplay:10.34,2013-06-05 09:39:00,
2013-06-05 03:44:00,38.9,34.2,30.16,SW,219,3.0,3.0,83,0.00,CLR,CLR,0.00,WeatherDisplay:10.34,2013-06-05 09:44:00,
2013-06-05 03:49:00,38.8,34.1,30.16,SW,219,3.0,3.0,83,0.00,CLR,CLR,0.00,WeatherDisplay:10.34,2013-06-05 09:49:00,
2013-06-05 03:54:00,38.7,34.0,30.15,SW,217,5.0,5.0,83,0.00,CLR,CLR,0.00,WeatherDisplay:10.34,2013-06-05 09:54:00,
2013-06-05 03:59:00,38.6,34.2,30.15,SW,217,4.0,4.0,84,0.00,CLR,CLR,0.00,WeatherDisplay:10.34,2013-06-05 09:59:00,
2013-06-05 04:04:00,38.6,34.2,30.15,SW,217,3.0,3.0,84,0.00,CLR,CLR,0.00,WeatherDisplay:10.34,2013-06-05 10:04:00,
2013-06-05 04:09:00,38.4,34.0,30.15,SW,217,3.0,3.0,84,0.00,CLR,CLR,0.00,WeatherDisplay:10.34,2013-06-05 10:09:00,
2013-06-05 04:14:00,38.2,33.8,30.15,SW,217,4.0,4.0,84,0.00,CLR,CLR,0.00,WeatherDisplay:10.34,2013-06-05 10:14:00,
2013-06-05 04:19:00,38.1,34.0,30.15,SW,217,4.0,4.0,85,0.00,CLR,CLR,0.00,WeatherDisplay:10.34,2013-06-05 10:19:00,
2013-06-05 04:24:00,38.0,33.9,30.16,SW,217,2.0,2.0,85,0.00,CLR,CLR,0.00,WeatherDisplay:10.34,2013-06-05 10:24:00,
2013-06-05 04:29:00,37.9,33.8,30.16,SW,217,1.0,1.0,85,0.00,CLR,CLR,0.00,WeatherDisplay:10.34,2013-06-05 10:29:00,
2013-06-05 04:34:00,37.7,33.6,30.15,SW,217,0.0,1.0,85,0.00,CLR,CLR,0.00,WeatherDisplay:10.34,2013-06-05 10:34:00,
2013-06-05 04:39:00,37.6,33.5,30.15,SW,217,0.0,1.0,85,0.00,CLR,CLR,0.00,WeatherDisplay:10.34,2013-06-05 10:39:00,
2013-06-05 04:44:00,37.5,33.4,30.15,SW,217,0.0,0.0,85,0.00,CLR,CLR,0.00,WeatherDisplay:10.34,2013-06-05 10:44:00,
2013-06-05 04:49:00,37.4,33.3,30.15,SW,217,0.0,1.0,85,0.00,CLR,CLR,0.00,WeatherDisplay:10.34,2013-06-05 10:49:00,
2013-06-05 04:54:00,37.3,33.2,30.15,SW,217,0.0,0.0,85,0.00,CLR,CLR,0.00,WeatherDisplay:10.34,2013-06-05 10:54:00,
2013-06-05 04:59:00,37.2,33.1,30.16,SW,217,0.0,0.0,85,0.00,CLR,CLR,0.00,WeatherDisplay:10.34,2013-06-05 10:59:00,
2013-06-05 05:04:00,37.1,33.0,30.16,SW,217,0.0,0.0,85,0.00,OVC,OVC,0.00,WeatherDisplay:10.34,2013-06-05 11:04:00,
2013-06-05 05:09:00,37.0,32.9,30.16,SW,217,0.0,0.0,85,0.00,OVC,OVC,0.00,WeatherDisplay:10.34,2013-06-05 11:09:00,
2013-06-05 05:14:00,36.9,32.8,30.15,SW,217,0.0,0.0,85,0.00,OVC,OVC,0.00,WeatherDisplay:10.34,2013-06-05 11:14:00,
2013-06-05 05:19:00,36.9,32.8,30.15,SW,217,0.0,0.0,85,0.00,OVC,OVC,0.00,WeatherDisplay:10.34,2013-06-05 11:19:00,
2013-06-05 05:24:00,36.6,32.5,30.15,SW,217,1.0,2.0,85,0.00,OVC,OVC,0.00,WeatherDisplay:10.34,2013-06-05 11:24:00,
2013-06-05 05:29:00,36.2,32.1,30.15,SW,217,2.0,2.0,85,0.00,OVC,OVC,0.00,WeatherDisplay:10.34,2013-06-05 11:29:00,
2013-06-05 05:34:00,36.1,32.0,30.15,SW,217,0.0,0.0,85,0.00,OVC,OVC,0.00,WeatherDisplay:10.34,2013-06-05 11:34:00,
2013-06-05 05:39:00,36.1,32.0,30.15,SW,217,0.0,0.0,85,0.00,OVC,OVC,0.00,WeatherDisplay:10.34,2013-06-05 11:39:00,
2013-06-05 05:44:00,36.1,32.3,30.15,SW,217,0.0,0.0,86,0.00,OVC,OVC,0.00,WeatherDisplay:10.34,2013-06-05 11:44:00,
2013-06-05 05:49:00,36.1,32.3,30.15,SW,217,0.0,0.0,86,0.00,OVC,OVC,0.00,WeatherDisplay:10.34,2013-06-05 11:49:00,
2013-06-05 05:54:00,36.1,32.3,30.16,SW,217,1.0,1.0,86,0.00,OVC,OVC,0.00,WeatherDisplay:10.34,2013-06-05 11:54:00,
2013-06-05 05:59:00,36.1,32.6,30.16,SW,217,0.0,0.0,87,0.00,OVC,OVC,0.00,WeatherDisplay:10.34,2013-06-05 11:59:00,
2013-06-05 06:04:00,36.2,32.7,30.16,SW,217,1.0,1.0,87,0.00,OVC,OVC,0.00,WeatherDisplay:10.34,2013-06-05 12:04:00,
2013-06-05 06:09:00,36.2,32.7,30.16,SW,217,0.0,0.0,87,0.00,CLR,CLR,0.00,WeatherDisplay:10.34,2013-06-05 12:09:00,
2013-06-05 06:14:00,36.3,32.8,30.15,SW,217,0.0,1.0,87,0.00,CLR,CLR,0.00,WeatherDisplay:10.34,2013-06-05 12:14:00,
2013-06-05 06:19:00,36.4,32.9,30.16,SW,217,0.0,0.0,87,0.00,FEW,FEW,0.00,WeatherDisplay:10.34,2013-06-05 12:19:00,
2013-06-05 06:24:00,36.6,33.4,30.16,SW,217,0.0,0.0,88,0.00,CLR,CLR,0.00,WeatherDisplay:10.34,2013-06-05 12:24:00,
2013-06-05 06:29:00,36.7,33.5,30.16,SW,217,0.0,0.0,88,0.00,CLR,CLR,0.00,WeatherDisplay:10.34,2013-06-05 12:29:00,
2013-06-05 06:34:00,37.0,33.8,30.16,SW,217,0.0,1.0,88,0.00,CLR,CLR,0.00,WeatherDisplay:10.34,2013-06-05 12:34:00,
2013-06-05 06:39:00,37.3,34.4,30.16,SW,217,0.0,0.0,89,0.00,CLR,CLR,0.00,WeatherDisplay:10.34,2013-06-05 12:39:00,
2013-06-05 06:44:00,37.7,34.8,30.15,SW,217,0.0,0.0,89,0.00,CLR,CLR,0.00,WeatherDisplay:10.34,2013-06-05 12:44:00,
2013-06-05 06:49:00,38.3,35.3,30.16,SW,217,0.0,1.0,89,0.00,CLR,CLR,0.00,WeatherDisplay:10.34,2013-06-05 12:49:00,
2013-06-05 06:54:00,38.8,35.8,30.16,SW,217,0.0,0.0,89,0.00,CLR,CLR,0.00,WeatherDisplay:10.34,2013-06-05 12:54:00,
2013-06-05 06:59:00,39.3,36.3,30.16,SW,217,0.0,0.0,89,0.00,CLR,CLR,0.00,WeatherDisplay:10.34,2013-06-05 12:59:00,
2013-06-05 07:04:00,39.8,36.8,30.16,SW,217,0.0,0.0,89,0.00,CLR,CLR,0.00,WeatherDisplay:10.34,2013-06-05 13:04:00,
2013-06-05 07:09:00,40.6,37.6,30.16,SW,217,0.0,1.0,89,0.00,CLR,CLR,0.00,WeatherDisplay:10.34,2013-06-05 13:09:00,
2013-06-05 07:14:00,41.7,38.7,30.16,SW,217,1.0,1.0,89,0.00,CLR,CLR,0.00,WeatherDisplay:10.34,2013-06-05 13:14:00,
2013-06-05 07:19:00,42.2,38.6,30.16,SW,217,0.0,1.0,87,0.00,CLR,CLR,0.00,WeatherDisplay:10.34,2013-06-05 13:19:00,
2013-06-05 07:24:00,42.7,38.5,30.15,SW,217,1.0,1.0,85,0.00,CLR,CLR,0.00,WeatherDisplay:10.34,2013-06-05 13:24:00,
2013-06-05 07:29:00,43.1,38.6,30.15,SW,217,0.0,2.0,84,0.00,CLR,CLR,0.00,WeatherDisplay:10.34,2013-06-05 13:29:00,
2013-06-05 07:34:00,43.7,39.2,30.16,SW,217,1.0,2.0,84,0.00,CLR,CLR,0.00,WeatherDisplay:10.34,2013-06-05 13:34:00,
2013-06-05 07:39:00,44.2,39.1,30.16,SW,217,0.0,0.0,82,0.00,CLR,CLR,0.00,WeatherDisplay:10.34,2013-06-05 13:39:00,
2013-06-05 07:44:00,44.8,39.3,30.16,SW,217,0.0,1.0,81,0.00,CLR,CLR,0.00,WeatherDisplay:10.34,2013-06-05 13:44:00,
2013-06-05 07:49:00,45.4,39.6,30.16,SW,217,0.0,0.0,80,0.00,CLR,CLR,0.00,WeatherDisplay:10.34,2013-06-05 13:49:00,
2013-06-05 07:54:00,46.1,39.6,30.16,SW,217,0.0,2.0,78,0.00,CLR,CLR,0.00,WeatherDisplay:10.34,2013-06-05 13:54:00,
2013-06-05 07:59:00,46.9,39.7,30.16,SW,217,0.0,1.0,76,0.00,CLR,CLR,0.00,WeatherDisplay:10.34,2013-06-05 13:59:00,
2013-06-05 08:04:00,47.6,39.7,30.16,SSW,209,1.0,1.0,74,0.00,CLR,CLR,0.00,WeatherDisplay:10.34,2013-06-05 14:04:00,
2013-06-05 08:09:00,48.1,39.1,30.16,SSW,209,1.0,1.0,71,0.00,CLR,CLR,0.00,WeatherDisplay:10.34,2013-06-05 14:09:00,
2013-06-05 08:14:00,48.5,39.5,30.16,South,191,0.0,0.0,71,0.00,CLR,CLR,0.00,WeatherDisplay:10.34,2013-06-05 14:14:00,
2013-06-05 08:19:00,49.1,39.4,30.16,South,191,0.0,0.0,69,0.00,CLR,CLR,0.00,WeatherDisplay:10.34,2013-06-05 14:19:00,
2013-06-05 08:24:00,49.5,39.0,30.15,SSE,153,3.0,3.0,67,0.00,CLR,CLR,0.00,WeatherDisplay:10.34,2013-06-05 14:24:00,
2013-06-05 08:29:00,49.6,38.7,30.15,SSE,153,3.0,3.0,66,0.00,CLR,CLR,0.00,WeatherDisplay:10.34,2013-06-05 14:29:00,
2013-06-05 08:34:00,49.8,38.5,30.15,SSE,150,2.0,5.0,65,0.00,CLR,CLR,0.00,WeatherDisplay:10.34,2013-06-05 14:34:00,
2013-06-05 08:39:00,50.1,39.2,30.15,SSE,161,3.0,3.0,66,0.00,CLR,CLR,0.00,WeatherDisplay:10.34,2013-06-05 14:39:00,
2013-06-05 08:44:00,50.5,39.2,30.15,SE,125,3.0,3.0,65,0.00,CLR,CLR,0.00,WeatherDisplay:10.34,2013-06-05 14:44:00,
2013-06-05 08:49:00,50.8,38.7,30.15,SE,139,0.0,1.0,63,0.00,CLR,CLR,0.00,WeatherDisplay:10.34,2013-06-05 14:49:00,
2013-06-05 08:54:00,51.4,40.0,30.15,East,86,6.0,7.0,65,0.00,CLR,CLR,0.00,WeatherDisplay:10.34,2013-06-05 14:54:00,
2013-06-05 08:59:00,51.8,39.6,30.15,SE,126,6.0,8.0,63,0.00,CLR,CLR,0.00,WeatherDisplay:10.34,2013-06-05 14:59:00,
2013-06-05 09:04:00,52.0,39.8,30.15,SE,134,3.0,3.0,63,0.00,CLR,CLR,0.00,WeatherDisplay:10.34,2013-06-05 15:04:00,
2013-06-05 09:09:00,52.5,39.4,30.15,ESE,119,7.0,9.0,61,0.00,CLR,CLR,0.00,WeatherDisplay:10.34,2013-06-05 15:09:00,
2013-06-05 09:14:00,52.8,39.3,30.15,ESE,115,6.0,7.0,60,0.00,CLR,CLR,0.00,WeatherDisplay:10.34,2013-06-05 15:14:00,
2013-06-05 09:19:00,53.0,39.5,30.15,SE,141,5.0,5.0,60,0.00,CLR,CLR,0.00,WeatherDisplay:10.34,2013-06-05 15:19:00,
2013-06-05 09:24:00,53.2,39.7,30.14,SE,138,9.0,9.0,60,0.00,CLR,CLR,0.00,WeatherDisplay:10.34,2013-06-05 15:24:00,
2013-06-05 09:29:00,53.5,39.5,30.14,East,98,8.0,9.0,59,0.00,CLR,CLR,0.00,WeatherDisplay:10.34,2013-06-05 15:29:00,
2013-06-05 09:34:00,53.9,39.9,30.14,SSE,150,7.0,7.0,59,0.00,CLR,CLR,0.00,WeatherDisplay:10.34,2013-06-05 15:34:00,
2013-06-05 09:39:00,54.3,39.8,30.14,SE,132,12.0,12.0,58,0.00,CLR,CLR,0.00,WeatherDisplay:10.34,2013-06-05 15:39:00,
2013-06-05 09:44:00,54.7,40.2,30.14,ENE,74,8.0,9.0,58,0.00,CLR,CLR,0.00,WeatherDisplay:10.34,2013-06-05 15:44:00,
2013-06-05 09:49:00,55.1,40.1,30.14,ESE,119,5.0,10.0,57,0.00,CLR,CLR,0.00,WeatherDisplay:10.34,2013-06-05 15:49:00,
2013-06-05 09:54:00,55.4,40.0,30.14,SE,126,2.0,8.0,56,0.00,CLR,CLR,0.00,WeatherDisplay:10.34,2013-06-05 15:54:00,
2013-06-05 09:59:00,55.6,39.2,30.14,SE,138,6.0,8.0,54,0.00,CLR,CLR,0.00,WeatherDisplay:10.34,2013-06-05 15:59:00,
2013-06-05 10:04:00,55.6,39.2,30.14,ESE,105,5.0,12.0,54,0.00,CLR,CLR,0.00,WeatherDisplay:10.34,2013-06-05 16:04:00,
2013-06-05 10:09:00,56.1,39.7,30.14,ESE,119,5.0,10.0,54,0.00,CLR,CLR,0.00,WeatherDisplay:10.34,2013-06-05 16:09:00,
2013-06-05 10:14:00,55.9,39.5,30.14,South,172,6.0,7.0,54,0.00,CLR,CLR,0.00,WeatherDisplay:10.34,2013-06-05 16:14:00,
2013-06-05 10:19:00,55.9,39.5,30.14,ESE,105,5.0,5.0,54,0.00,CLR,CLR,0.00,WeatherDisplay:10.34,2013-06-05 16:19:00,
2013-06-05 10:24:00,56.9,40.4,30.14,NE,40,8.0,9.0,54,0.00,CLR,CLR,0.00,WeatherDisplay:10.34,2013-06-05 16:24:00,
2013-06-05 10:30:00,57.8,39.3,30.14,SSE,164,11.0,0.0,50,0.00,CLR,CLR,0.00,WeatherDisplay:10.34,2013-06-05 16:30:00,
2013-06-05 10:35:00,57.6,39.1,30.13,ESE,115,6.0,6.0,50,0.00,CLR,CLR,0.00,WeatherDisplay:10.34,2013-06-05 16:35:00,
2013-06-05 10:40:00,57.9,39.4,30.13,SE,126,9.0,0.0,50,0.00,CLR,CLR,0.00,WeatherDisplay:10.34,2013-06-05 16:40:00,
2013-06-05 10:45:00,58.1,40.1,30.13,ENE,66,11.0,13.0,51,0.00,CLR,CLR,0.00,WeatherDisplay:10.34,2013-06-05 16:45:00,
2013-06-05 10:50:00,58.9,39.8,30.13,ENE,59,9.0,9.0,49,0.00,CLR,CLR,0.00,WeatherDisplay:10.34,2013-06-05 16:50:00,
2013-06-05 10:55:00,59.0,38.2,30.13,SE,138,9.0,9.0,46,0.00,CLR,CLR,0.00,WeatherDisplay:10.34,2013-06-05 16:55:00,
2013-06-05 11:00:00,59.0,39.9,30.13,East,87,15.0,15.0,49,0.00,CLR,CLR,0.00,WeatherDisplay:10.34,2013-06-05 17:00:00,
2013-06-05 11:05:00,59.6,38.8,30.13,ESE,105,9.0,13.0,46,0.00,CLR,CLR,0.00,WeatherDisplay:10.34,2013-06-05 17:05:00,
2013-06-05 11:10:00,59.8,38.4,30.13,ESE,118,1.0,2.0,45,0.00,CLR,CLR,0.00,WeatherDisplay:10.34,2013-06-05 17:10:00,
2013-06-05 11:15:00,60.5,38.5,30.12,SE,137,12.0,12.0,44,0.00,CLR,CLR,0.00,WeatherDisplay:10.34,2013-06-05 17:15:00,
2013-06-05 11:20:00,59.9,37.3,30.12,East,100,7.0,7.0,43,0.00,CLR,CLR,0.00,WeatherDisplay:10.34,2013-06-05 17:20:00,
2013-06-05 11:25:00,60.6,39.1,30.12,East,92,11.0,13.0,45,0.00,CLR,CLR,0.00,WeatherDisplay:10.34,2013-06-05 17:25:00,
2013-06-05 11:30:00,61.1,38.4,30.12,ESE,121,10.0,0.0,43,0.00,CLR,CLR,0.00,WeatherDisplay:10.34,2013-06-05 17:30:00,
2013-06-05 11:35:00,60.3,37.7,30.12,SSE,160,9.0,10.0,43,0.00,CLR,CLR,0.00,WeatherDisplay:10.34,2013-06-05 17:35:00,
2013-06-05 11:40:00,60.2,36.4,30.12,South,175,5.0,0.0,41,0.00,CLR,CLR,0.00,WeatherDisplay:10.34,2013-06-05 17:40:00,
2013-06-05 11:45:00,60.7,38.1,30.11,ESE,110,3.0,7.0,43,0.00,CLR,CLR,0.00,WeatherDisplay:10.34,2013-06-05 17:45:00,
2013-06-05 11:50:00,61.4,36.8,30.11,ESE,106,9.0,9.0,40,0.00,CLR,CLR,0.00,WeatherDisplay:10.34,2013-06-05 17:50:00,
2013-06-05 11:55:00,61.0,35.2,30.12,SSW,201,6.0,8.0,38,0.00,CLR,CLR,0.00,WeatherDisplay:10.34,2013-06-05 17:55:00,
2013-06-05 12:00:00,61.4,35.5,30.12,ESE,102,8.0,8.0,38,0.00,CLR,CLR,0.00,WeatherDisplay:10.34,2013-06-05 18:00:00,
2013-06-05 12:05:00,62.0,34.7,30.12,East,91,3.0,3.0,36,0.00,CLR,CLR,0.00,WeatherDisplay:10.34,2013-06-05 18:05:00,
2013-06-05 12:10:00,62.4,35.8,30.12,ESE,117,7.0,7.0,37,0.00,CLR,CLR,0.00,WeatherDisplay:10.34,2013-06-05 18:10:00,
2013-06-05 12:15:00,63.0,37.0,30.11,NW,315,2.0,2.0,38,0.00,CLR,CLR,0.00,WeatherDisplay:10.34,2013-06-05 18:15:00,
2013-06-05 12:20:00,63.2,35.1,30.11,East,99,2.0,3.0,35,0.00,CLR,CLR,0.00,WeatherDisplay:10.34,2013-06-05 18:20:00,
2013-06-05 12:25:00,64.0,39.8,30.11,North,355,7.0,12.0,41,0.00,CLR,CLR,0.00,WeatherDisplay:10.34,2013-06-05 18:25:00,
2013-06-05 12:30:00,63.9,35.7,30.10,ESE,103,10.0,10.0,35,0.00,CLR,CLR,0.00,WeatherDisplay:10.34,2013-06-05 18:30:00,
2013-06-05 12:35:00,62.9,34.8,30.10,South,178,6.0,7.0,35,0.00,CLR,CLR,0.00,WeatherDisplay:10.34,2013-06-05 18:35:00,
2013-06-05 12:40:00,63.0,35.6,30.10,South,182,6.0,7.0,36,0.00,CLR,CLR,0.00,WeatherDisplay:10.34,2013-06-05 18:40:00,
2013-06-05 12:45:00,62.7,34.6,30.10,South,183,9.0,9.0,35,0.00,CLR,CLR,0.00,WeatherDisplay:10.34,2013-06-05 18:45:00,
2013-06-05 12:50:00,62.0,34.7,30.10,SSE,163,6.0,6.0,36,0.00,CLR,CLR,0.00,WeatherDisplay:10.34,2013-06-05 18:50:00,
2013-06-05 12:55:00,62.3,33.6,30.10,SE,130,5.0,5.0,34,0.00,CLR,CLR,0.00,WeatherDisplay:10.34,2013-06-05 18:55:00,
2013-06-05 13:00:00,62.8,34.0,30.10,ENE,70,6.0,9.0,34,0.00,CLR,CLR,0.00,WeatherDisplay:10.34,2013-06-05 19:00:00,
2013-06-05 13:05:00,63.8,37.0,30.10,NNE,26,1.0,2.0,37,0.00,FEW,FEW,0.00,WeatherDisplay:10.34,2013-06-05 19:05:00,
2013-06-05 13:10:00,64.9,35.8,30.10,ESE,118,2.0,2.0,34,0.00,FEW,FEW,0.00,WeatherDisplay:10.34,2013-06-05 19:10:00,
2013-06-05 13:15:00,65.4,38.4,30.10,WNW,292,4.0,5.0,37,0.00,FEW,FEW,0.00,WeatherDisplay:10.34,2013-06-05 19:15:00,
2013-06-05 13:20:00,66.2,37.0,30.09,NNW,332,4.0,4.0,34,0.00,FEW,FEW,0.00,WeatherDisplay:10.34,2013-06-05 19:20:00,
2013-06-05 13:25:00,66.4,34.8,30.09,SE,126,7.0,7.0,31,0.00,FEW,FEW,0.00,WeatherDisplay:10.34,2013-06-05 19:25:00,
2013-06-05 13:30:00,66.6,35.8,30.09,North,360,1.0,2.0,32,0.00,FEW,FEW,0.00,WeatherDisplay:10.34,2013-06-05 19:30:00,
2013-06-05 13:35:00,67.0,36.9,30.09,ENE,59,7.0,9.0,33,0.00,FEW,FEW,0.00,WeatherDisplay:10.34,2013-06-05 19:35:00,
2013-06-05 13:40:00,66.8,35.2,30.08,ESE,122,0.0,1.0,31,0.00,FEW,FEW,0.00,WeatherDisplay:10.34,2013-06-05 19:40:00,
2013-06-05 13:45:00,67.0,36.9,30.08,North,360,2.0,2.0,33,0.00,FEW,FEW,0.00,WeatherDisplay:10.34,2013-06-05 19:45:00,
2013-06-05 13:50:00,67.0,37.7,30.07,WSW,253,1.0,0.0,34,0.00,FEW,FEW,0.00,WeatherDisplay:10.34,2013-06-05 19:50:00,
2013-06-05 13:55:00,66.5,35.7,30.07,South,186,5.0,5.0,32,0.00,FEW,FEW,0.00,WeatherDisplay:10.34,2013-06-05 19:55:00,
2013-06-05 14:00:00,65.8,35.9,30.07,South,186,6.0,7.0,33,0.00,FEW,FEW,0.00,WeatherDisplay:10.34,2013-06-05 20:00:00,
2013-06-05 14:05:00,65.9,36.0,30.07,SSW,200,4.0,4.0,33,0.00,FEW,FEW,0.00,WeatherDisplay:10.34,2013-06-05 20:05:00,
2013-06-05 14:10:00,67.0,38.4,30.07,NE,49,4.0,7.0,35,0.00,FEW,FEW,0.00,WeatherDisplay:10.34,2013-06-05 20:10:00,
2013-06-05 14:15:00,67.8,37.6,30.07,NNW,334,7.0,13.0,33,0.00,FEW,FEW,0.00,WeatherDisplay:10.34,2013-06-05 20:15:00,
2013-06-05 14:20:00,68.4,37.4,30.07,North,355,6.0,7.0,32,0.00,FEW,FEW,0.00,WeatherDisplay:10.34,2013-06-05 20:20:00,
2013-06-05 14:25:00,68.3,38.1,30.07,NW,310,5.0,5.0,33,0.00,FEW,FEW,0.00,WeatherDisplay:10.34,2013-06-05 20:25:00,
2013-06-05 14:30:00,68.5,36.7,30.07,North,5,4.0,4.0,31,0.00,FEW,FEW,0.00,WeatherDisplay:10.34,2013-06-05 20:30:00,
2013-06-05 14:35:00,68.8,36.9,30.07,NNE,24,9.0,9.0,31,0.00,FEW,FEW,0.00,WeatherDisplay:10.34,2013-06-05 20:35:00,
2013-06-05 14:40:00,68.8,36.9,30.07,ENE,71,3.0,3.0,31,0.00,FEW,FEW,0.00,WeatherDisplay:10.34,2013-06-05 20:40:00,
2013-06-05 14:45:00,68.8,37.7,30.07,West,264,6.0,7.0,32,0.00,FEW,FEW,0.00,WeatherDisplay:10.34,2013-06-05 20:45:00,
2013-06-05 14:50:00,68.8,39.3,30.05,West,259,5.0,5.0,34,0.00,FEW,FEW,0.00,WeatherDisplay:10.34,2013-06-05 20:50:00,
2013-06-05 14:55:00,69.1,38.8,30.05,WNW,294,3.0,3.0,33,0.00,FEW,FEW,0.00,WeatherDisplay:10.34,2013-06-05 20:55:00,
2013-06-05 15:00:00,68.5,36.7,30.05,South,173,6.0,8.0,31,0.00,FEW,FEW,0.00,WeatherDisplay:10.34,2013-06-05 21:00:00,
2013-06-05 15:05:00,67.5,35.8,30.05,South,172,6.0,7.0,31,0.00,FEW,FEW,0.00,WeatherDisplay:10.34,2013-06-05 21:05:00,
2013-06-05 15:10:00,67.4,35.7,30.05,SSW,211,4.0,7.0,31,0.00,FEW,FEW,0.00,WeatherDisplay:10.34,2013-06-05 21:10:00,
2013-06-05 15:15:00,67.7,36.8,30.05,SSE,154,6.0,7.0,32,0.00,FEW,FEW,0.00,WeatherDisplay:10.34,2013-06-05 21:15:00,
2013-06-05 15:20:00,68.2,36.4,30.05,ESE,121,11.0,11.0,31,0.00,FEW,FEW,0.00,WeatherDisplay:10.34,2013-06-05 21:20:00,
2013-06-05 15:25:00,68.4,36.6,30.04,East,97,7.0,7.0,31,0.00,FEW,FEW,0.00,WeatherDisplay:10.34,2013-06-05 21:25:00,
2013-06-05 15:30:00,68.7,36.8,30.04,ESE,122,5.0,8.0,31,0.00,FEW,FEW,0.00,WeatherDisplay:10.34,2013-06-05 21:30:00,
2013-06-05 15:35:00,68.9,36.2,30.04,ENE,70,1.0,1.0,30,0.00,FEW,FEW,0.00,WeatherDisplay:10.34,2013-06-05 21:35:00,
2013-06-05 15:40:00,69.0,36.3,30.03,East,96,2.0,3.0,30,0.00,FEW,FEW,0.00,WeatherDisplay:10.34,2013-06-05 21:40:00,
2013-06-05 15:45:00,69.3,36.5,30.03,ESE,105,6.0,6.0,30,0.00,FEW,FEW,0.00,WeatherDisplay:10.34,2013-06-05 21:45:00,
2013-06-05 15:50:00,69.7,36.9,30.03,NNE,24,6.0,8.0,30,0.00,FEW,FEW,0.00,WeatherDisplay:10.34,2013-06-05 21:50:00,
2013-06-05 15:55:00,69.5,36.7,30.03,ENE,71,5.0,5.0,30,0.00,FEW,FEW,0.00,WeatherDisplay:10.34,2013-06-05 21:55:00,
2013-06-05 16:00:00,69.5,35.8,30.03,SSE,153,2.0,2.0,29,0.00,FEW,FEW,0.00,WeatherDisplay:10.34,2013-06-05 22:00:00,
2013-06-05 16:05:00,69.6,36.8,30.03,North,11,8.0,8.0,30,0.00,FEW,FEW,0.00,WeatherDisplay:10.34,2013-06-05 22:05:00,
2013-06-05 16:10:00,69.8,37.8,30.02,North,10,4.0,5.0,31,0.00,FEW,FEW,0.00,WeatherDisplay:10.34,2013-06-05 22:10:00,
2013-06-05 16:15:00,70.2,37.3,30.02,NNW,338,5.0,7.0,30,0.00,FEW,FEW,0.00,WeatherDisplay:10.34,2013-06-05 22:15:00,
2013-06-05 16:20:00,70.3,38.2,30.02,NE,36,7.0,7.0,31,0.00,FEW,FEW,0.00,WeatherDisplay:10.34,2013-06-05 22:20:00,
2013-06-05 16:25:00,70.5,36.7,30.02,NE,44,8.0,8.0,29,0.00,FEW,FEW,0.00,WeatherDisplay:10.34,2013-06-05 22:25:00,
2013-06-05 16:30:00,70.4,37.5,30.01,NW,304,5.0,5.0,30,0.00,FEW,FEW,0.00,WeatherDisplay:10.34,2013-06-05 22:30:00,
2013-06-05 16:35:00,69.8,37.8,30.01,NW,313,4.0,7.0,31,0.00,FEW,FEW,0.00,WeatherDisplay:10.34,2013-06-05 22:35:00,
2013-06-05 16:40:00,70.1,38.0,30.01,NW,323,5.0,5.0,31,0.00,FEW,FEW,0.00,WeatherDisplay:10.34,2013-06-05 22:40:00,
2013-06-05 16:45:00,70.2,37.3,30.01,NE,56,4.0,4.0,30,0.00,FEW,FEW,0.00,WeatherDisplay:10.34,2013-06-05 22:45:00,
2013-06-05 16:50:00,70.6,36.8,30.01,ESE,103,7.0,8.0,29,0.00,FEW,FEW,0.00,WeatherDisplay:10.34,2013-06-05 22:50:00,
2013-06-05 16:55:00,70.5,36.7,30.01,ESE,110,10.0,10.0,29,0.00,FEW,FEW,0.00,WeatherDisplay:10.34,2013-06-05 22:55:00,
2013-06-05 17:00:00,70.2,35.5,30.01,SE,137,4.0,4.0,28,0.00,FEW,FEW,0.00,WeatherDisplay:10.34,2013-06-05 23:00:00,
2013-06-05 17:05:00,70.4,38.3,30.01,ESE,115,1.0,2.0,31,0.00,FEW,FEW,0.00,WeatherDisplay:10.34,2013-06-05 23:05:00,
2013-06-05 17:10:00,70.8,37.0,30.01,NNW,330,1.0,2.0,29,0.00,FEW,FEW,0.00,WeatherDisplay:10.34,2013-06-05 23:10:00,
2013-06-05 17:15:00,70.8,36.1,30.01,ENE,63,4.0,7.0,28,0.00,FEW,FEW,0.00,WeatherDisplay:10.34,2013-06-05 23:15:00,
2013-06-05 17:20:00,70.8,37.0,30.01,ESE,112,8.0,8.0,29,0.00,FEW,FEW,0.00,WeatherDisplay:10.34,2013-06-05 23:20:00,
2013-06-05 17:25:00,70.3,35.6,30.01,SSW,202,9.0,9.0,28,0.00,FEW,FEW,0.00,WeatherDisplay:10.34,2013-06-05 23:25:00,
2013-06-05 17:30:00,70.0,38.0,30.00,SSW,210,3.0,3.0,31,0.00,FEW,FEW,0.00,WeatherDisplay:10.34,2013-06-05 23:30:00,
2013-06-05 17:35:00,70.1,38.0,30.00,SSW,210,0.0,0.0,31,0.00,FEW,FEW,0.00,WeatherDisplay:10.34,2013-06-05 23:35:00,
2013-06-05 17:40:00,70.3,38.2,30.00,NNW,336,5.0,5.0,31,0.00,FEW,FEW,0.00,WeatherDisplay:10.34,2013-06-05 23:40:00,
2013-06-05 17:45:00,70.6,36.8,30.00,NNW,346,6.0,7.0,29,0.00,FEW,FEW,0.00,WeatherDisplay:10.34,2013-06-05 23:45:00,
2013-06-05 17:50:00,70.5,36.7,29.99,North,10,7.0,7.0,29,0.00,FEW,FEW,0.00,WeatherDisplay:10.34,2013-06-05 23:50:00,
2013-06-05 17:55:00,70.6,36.8,29.99,ENE,67,6.0,6.0,29,0.00,FEW,FEW,0.00,WeatherDisplay:10.34,2013-06-05 23:55:00,
2013-06-05 18:00:00,70.4,36.6,29.99,NW,307,4.0,7.0,29,0.00,FEW,FEW,0.00,WeatherDisplay:10.34,2013-06-06 00:00:00,
2013-06-05 18:05:00,70.4,36.6,29.99,NNE,22,3.0,3.0,29,0.00,FEW,FEW,0.00,WeatherDisplay:10.34,2013-06-06 00:05:00,
2013-06-05 18:10:00,70.2,35.5,29.99,North,355,3.0,3.0,28,0.00,FEW,FEW,0.00,WeatherDisplay:10.34,2013-06-06 00:10:00,
2013-06-05 18:15:00,70.3,36.5,29.99,West,259,1.0,1.0,29,0.00,FEW,FEW,0.00,WeatherDisplay:10.34,2013-06-06 00:15:00,
2013-06-05 18:20:00,70.4,37.5,29.99,NNW,333,5.0,7.0,30,0.00,FEW,FEW,0.00,WeatherDisplay:10.34,2013-06-06 00:20:00,
2013-06-05 18:25:00,70.2,36.4,29.99,NNW,340,6.0,6.0,29,0.00,FEW,FEW,0.00,WeatherDisplay:10.34,2013-06-06 00:25:00,
2013-06-05 18:30:00,70.0,38.0,29.99,NNW,329,4.0,4.0,31,0.00,FEW,FEW,0.00,WeatherDisplay:10.34,2013-06-06 00:30:00,
2013-06-05 18:35:00,69.7,38.5,29.99,NNW,346,8.0,9.0,32,0.00,FEW,FEW,0.00,WeatherDisplay:10.34,2013-06-06 00:35:00,
2013-06-05 18:40:00,69.2,37.3,29.99,NNW,334,6.0,7.0,31,0.00,FEW,FEW,0.00,WeatherDisplay:10.34,2013-06-06 00:40:00,
2013-06-05 18:45:00,69.1,37.2,29.99,WNW,297,2.0,3.0,31,0.00,FEW,FEW,0.00,WeatherDisplay:10.34,2013-06-06 00:45:00,
2013-06-05 18:50:00,69.2,37.3,29.98,North,355,8.0,8.0,31,0.00,FEW,FEW,0.00,WeatherDisplay:10.34,2013-06-06 00:50:00,
2013-06-05 18:55:00,69.2,37.3,29.98,NNW,338,7.0,7.0,31,0.00,FEW,FEW,0.00,WeatherDisplay:10.34,2013-06-06 00:55:00,
2013-06-05 19:00:00,68.9,37.8,29.98,NW,311,3.0,3.0,32,0.00,FEW,FEW,0.00,WeatherDisplay:10.34,2013-06-06 01:00:00,
2013-06-05 19:05:00,68.9,37.8,29.98,NW,321,5.0,5.0,32,0.00,SCT,SCT,0.00,WeatherDisplay:10.34,2013-06-06 01:05:00,
2013-06-05 19:10:00,68.9,36.2,29.98,NNW,340,4.0,4.0,30,0.00,FEW,FEW,0.00,WeatherDisplay:10.34,2013-06-06 01:10:00,
2013-06-05 19:15:00,68.8,36.9,29.98,NNW,340,6.0,6.0,31,0.00,FEW,FEW,0.00,WeatherDisplay:10.34,2013-06-06 01:15:00,
2013-06-05 19:20:00,68.7,36.8,29.99,NNW,329,2.0,2.0,31,0.00,SCT,SCT,0.00,WeatherDisplay:10.34,2013-06-06 01:20:00,
2013-06-05 19:25:00,68.7,37.6,29.99,NW,309,3.0,3.0,32,0.00,SCT,SCT,0.00,WeatherDisplay:10.34,2013-06-06 01:25:00,
2013-06-05 19:30:00,68.6,36.7,29.98,NW,313,4.0,4.0,31,0.00,SCT,SCT,0.00,WeatherDisplay:10.34,2013-06-06 01:30:00,
2013-06-05 19:35:00,68.4,35.7,29.98,NNW,333,4.0,4.0,30,0.00,SCT,SCT,0.00,WeatherDisplay:10.34,2013-06-06 01:35:00,
2013-06-05 19:40:00,68.3,36.5,29.99,NNW,333,4.0,4.0,31,0.00,SCT,SCT,0.00,WeatherDisplay:10.34,2013-06-06 01:40:00,
2013-06-05 19:45:00,68.0,37.8,29.99,NNW,330,3.0,3.0,33,0.00,SCT,SCT,0.00,WeatherDisplay:10.34,2013-06-06 01:45:00,
2013-06-05 19:50:00,67.9,35.3,29.99,NNW,336,3.0,3.0,30,0.00,SCT,SCT,0.00,WeatherDisplay:10.34,2013-06-06 01:50:00,
2013-06-05 19:55:00,67.9,35.3,29.99,NNW,336,1.0,1.0,30,0.00,SCT,SCT,0.00,WeatherDisplay:10.34,2013-06-06 01:55:00,
2013-06-05 20:00:00,67.9,36.1,29.99,NNW,336,3.0,3.0,31,0.00,SCT,SCT,0.00,WeatherDisplay:10.34,2013-06-06 02:00:00,
2013-06-05 20:05:00,67.7,36.0,29.99,NNE,27,3.0,3.0,31,0.00,SCT,SCT,0.00,WeatherDisplay:10.34,2013-06-06 02:05:00,
2013-06-05 20:10:00,67.6,35.9,30.00,NNE,24,1.0,1.0,31,0.00,BKN,BKN,0.00,WeatherDisplay:10.34,2013-06-06 02:10:00,
2013-06-05 20:15:00,67.4,35.7,30.00,NNE,13,2.0,2.0,31,0.00,OVC,OVC,0.00,WeatherDisplay:10.34,2013-06-06 02:15:00,
2013-06-05 20:20:00,67.1,37.0,30.00,North,5,0.0,1.0,33,0.00,OVC,OVC,0.00,WeatherDisplay:10.34,2013-06-06 02:20:00,
2013-06-05 20:25:00,66.9,36.8,30.00,North,5,0.0,1.0,33,0.00,OVC,OVC,0.00,WeatherDisplay:10.34,2013-06-06 02:25:00,
2013-06-05 20:30:00,66.9,36.1,29.99,North,5,0.0,0.0,32,0.00,OVC,OVC,0.00,WeatherDisplay:10.34,2013-06-06 02:30:00,
2013-06-05 20:35:00,66.7,36.7,29.99,North,5,0.0,1.0,33,0.00,OVC,OVC,0.00,WeatherDisplay:10.34,2013-06-06 02:35:00,
2013-06-05 20:40:00,66.5,37.2,29.99,North,5,0.0,0.0,34,0.00,OVC,OVC,0.00,WeatherDisplay:10.34,2013-06-06 02:40:00,
2013-06-05 20:45:00,66.3,38.5,29.99,North,360,0.0,0.0,36,0.00,OVC,OVC,0.00,WeatherDisplay:10.34,2013-06-06 02:45:00,
2013-06-05 20:50:00,66.1,38.4,29.99,North,360,0.0,0.0,36,0.00,OVC,OVC,0.00,WeatherDisplay:10.34,2013-06-06 02:50:00,
2013-06-05 20:55:00,65.8,38.1,29.99,North,5,0.0,0.0,36,0.00,OVC,OVC,0.00,WeatherDisplay:10.34,2013-06-06 02:55:00,
2013-06-05 21:00:00,65.4,39.1,29.99,North,5,0.0,0.0,38,0.00,CLR,CLR,0.00,WeatherDisplay:10.34,2013-06-06 03:00:00,
2013-06-05 21:05:00,65.0,38.8,29.99,North,5,0.0,0.0,38,0.00,CLR,CLR,0.00,WeatherDisplay:10.34,2013-06-06 03:05:00,
2013-06-05 21:10:00,64.4,40.2,30.00,North,360,0.0,0.0,41,0.00,CLR,CLR,0.00,WeatherDisplay:10.34,2013-06-06 03:10:00,
2013-06-05 21:15:00,63.8,40.9,30.00,North,360,0.0,0.0,43,0.00,CLR,CLR,0.00,WeatherDisplay:10.34,2013-06-06 03:15:00,
2013-06-05 21:20:00,63.2,40.3,29.99,North,5,0.0,0.0,43,0.00,CLR,CLR,0.00,WeatherDisplay:10.34,2013-06-06 03:20:00,
2013-06-05 21:25:00,62.7,39.9,30.00,North,5,0.0,0.0,43,0.00,CLR,CLR,0.00,WeatherDisplay:10.34,2013-06-06 03:25:00,
2013-06-05 21:30:00,62.2,38.8,30.00,North,5,0.0,0.0,42,0.00,CLR,CLR,0.00,WeatherDisplay:10.34,2013-06-06 03:30:00,
2013-06-05 21:35:00,61.9,39.7,30.00,North,5,0.0,0.0,44,0.00,CLR,CLR,0.00,WeatherDisplay:10.34,2013-06-06 03:35:00,
2013-06-05 21:40:00,61.4,38.7,30.00,North,5,1.0,1.0,43,0.00,CLR,CLR,0.00,WeatherDisplay:10.34,2013-06-06 03:40:00,
2013-06-05 21:45:00,61.0,38.9,30.00,SW,221,2.0,2.0,44,0.00,CLR,CLR,0.00,WeatherDisplay:10.34,2013-06-06 03:45:00,
2013-06-05 21:50:00,60.7,39.2,30.00,SW,221,1.0,1.0,45,0.00,CLR,CLR,0.00,WeatherDisplay:10.34,2013-06-06 03:50:00,
2013-06-05 21:55:00,60.4,40.6,30.00,SW,221,0.0,0.0,48,0.00,CLR,CLR,0.00,WeatherDisplay:10.34,2013-06-06 03:55:00,
2013-06-05 22:00:00,60.1,41.4,30.00,SW,221,0.0,0.0,50,0.00,CLR,CLR,0.00,WeatherDisplay:10.34,2013-06-06 04:00:00,
2013-06-05 22:01:00,60.0,41.8,30.00,SW,221,0.0,0.0,51,0.00,CLR,CLR,0.00,WeatherDisplay:10.34,2013-06-06 04:01:00,
2013-06-05 22:03:00,59.9,41.7,30.00,SW,221,0.0,0.0,51,0.00,CLR,CLR,0.00,WeatherDisplay:10.34,2013-06-06 04:03:00,
2013-06-05 22:04:00,59.9,41.7,30.00,SW,221,0.0,0.0,51,0.00,CLR,CLR,0.00,WeatherDisplay:10.34,2013-06-06 04:04:00,
2013-06-05 22:05:00,59.9,41.2,30.00,SW,221,0.0,0.0,50,0.00,CLR,CLR,0.00,WeatherDisplay:10.34,2013-06-06 04:05:00,
2013-06-05 22:08:00,59.7,39.4,30.00,SW,221,0.0,1.0,47,0.00,CLR,CLR,0.00,WeatherDisplay:10.34,2013-06-06 04:08:00,
2013-06-05 22:13:00,59.4,38.0,30.00,ENE,76,1.0,1.0,45,0.00,CLR,CLR,0.00,WeatherDisplay:10.34,2013-06-06 04:13:00,
2013-06-05 22:18:00,59.4,38.0,30.00,ENE,76,2.0,2.0,45,0.00,CLR,CLR,0.00,WeatherDisplay:10.34,2013-06-06 04:18:00,
2013-06-05 22:23:00,59.5,38.1,30.01,ENE,78,0.0,1.0,45,0.00,CLR,CLR,0.00,WeatherDisplay:10.34,2013-06-06 04:23:00,
2013-06-05 22:28:00,59.5,37.6,30.01,ENE,78,0.0,0.0,44,0.00,CLR,CLR,0.00,WeatherDisplay:10.34,2013-06-06 04:28:00,
2013-06-05 22:33:00,59.6,39.9,30.01,ENE,78,0.0,1.0,48,0.00,CLR,CLR,0.00,WeatherDisplay:10.34,2013-06-06 04:33:00,
2013-06-05 22:38:00,59.5,40.3,30.01,ENE,78,0.0,0.0,49,0.00,CLR,CLR,0.00,WeatherDisplay:10.34,2013-06-06 04:38:00,
2013-06-05 22:43:00,59.3,40.7,30.01,ENE,78,0.0,1.0,50,0.00,CLR,CLR,0.00,WeatherDisplay:10.34,2013-06-06 04:43:00,
2013-06-05 22:48:00,59.0,40.4,30.01,ENE,78,0.0,0.0,50,0.00,CLR,CLR,0.00,WeatherDisplay:10.34,2013-06-06 04:48:00,
2013-06-05 22:53:00,59.0,40.4,30.01,ENE,78,0.0,0.0,50,0.00,CLR,CLR,0.00,WeatherDisplay:10.34,2013-06-06 04:53:00,
2013-06-05 22:58:00,58.7,41.1,30.01,ENE,78,0.0,0.0,52,0.00,CLR,CLR,0.00,WeatherDisplay:10.34,2013-06-06 04:58:00,
2013-06-05 23:03:00,58.2,41.6,30.01,ENE,78,1.0,1.0,54,0.00,CLR,CLR,0.00,WeatherDisplay:10.34,2013-06-06 05:03:00,
2013-06-05 23:08:00,57.7,40.7,30.02,ENE,77,1.0,1.0,53,0.00,CLR,CLR,0.00,WeatherDisplay:10.34,2013-06-06 05:08:00,
2013-06-05 23:13:00,57.3,40.3,30.02,ENE,76,1.0,1.0,53,0.00,CLR,CLR,0.00,WeatherDisplay:10.34,2013-06-06 05:13:00,
2013-06-05 23:18:00,57.0,40.0,30.02,ENE,76,0.0,0.0,53,0.00,CLR,CLR,0.00,WeatherDisplay:10.34,2013-06-06 05:18:00,
2013-06-05 23:23:00,56.8,40.8,30.01,ENE,77,0.0,0.0,55,0.00,CLR,CLR,0.00,WeatherDisplay:10.34,2013-06-06 05:23:00,
2013-06-05 23:28:00,56.6,40.6,30.01,ENE,77,0.0,0.0,55,0.00,CLR,CLR,0.00,WeatherDisplay:10.34,2013-06-06 05:28:00,
2013-06-05 23:33:00,56.4,40.4,30.00,ENE,76,0.0,0.0,55,0.00,CLR,CLR,0.00,WeatherDisplay:10.34,2013-06-06 05:33:00,
2013-06-05 23:38:00,56.3,40.8,30.00,ENE,77,0.0,0.0,56,0.00,CLR,CLR,0.00,WeatherDisplay:10.34,2013-06-06 05:38:00,
2013-06-05 23:43:00,56.1,41.1,30.00,ENE,76,0.0,0.0,57,0.00,CLR,CLR,0.00,WeatherDisplay:10.34,2013-06-06 05:43:00,
2013-06-05 23:48:00,55.9,40.9,30.00,ENE,76,0.0,0.0,57,0.00,CLR,CLR,0.00,WeatherDisplay:10.34,2013-06-06 05:48:00,
2013-06-05 23:53:00,55.6,40.1,30.00,ENE,77,0.0,0.0,56,0.00,CLR,CLR,0.00,WeatherDisplay:10.34,2013-06-06 05:53:00,
2013-06-05 23:58:00,55.2,40.2,30.00,South,191,2.0,2.0,57,0.00,CLR,CLR,0.00,WeatherDisplay:10.34,2013-06-06 05:58:00,